HAZ849 ZGGG-KLAX

Flight info

Callsign HAZ849
Flight time N/A
Altitude 31100
Route BOVMA9 BOVMA W41 OMDUP G471 EGEDA/K0937S0920 G471 PLT/K0937S0950 A599 JTN G327 LAMEN/N0500F310 A593 SADLI Y590 BEDAR Y591 FUE Y23 KASTE Y81 SABAR/N0497F330 Y81 TASOT Y57 POROT Y809 IDLAN Y812 ADNAP OTR5 KALNA DCT 43N160E 44N170E 46N180E/N0489F350 47N170W 46N160W 44N150W 43N145W 42N140W/N0479F370 39N130W DCT DACEM DCT PIRAT DCT BURGL BAYST1
Aircraft B77W/H-SDE1E2E3FGHIJ2J3J4J5M1RWXY/LB1D1

Departure

Time 2026-05-05 09:51
Airport Guangzhou Baiyun International Airport (ZGGG)

Arrival

Time N/A
Airport Los Angeles International Airport (KLAX)
Time Latitude Longitude Altitude Speed Heading
2026-05-05 09:31 23.38301 113.30185 57 ft 0 kts 322°
2026-05-05 09:42 23.38289 113.30194 57 ft 2 kts 326°
2026-05-05 09:42 23.38276 113.30203 57 ft 2 kts 323°
2026-05-05 09:43 23.38268 113.30210 57 ft 1 kts 322°
2026-05-05 09:43 23.38259 113.30222 57 ft 2 kts 287°
2026-05-05 09:43 23.38258 113.30238 57 ft 2 kts 249°
2026-05-05 09:43 23.38266 113.30250 57 ft 2 kts 214°
2026-05-05 09:44 23.38274 113.30255 57 ft 0 kts 193°
2026-05-05 09:44 23.38279 113.30256 57 ft 0 kts 194°
2026-05-05 09:47 23.38273 113.30254 57 ft 2 kts 194°
2026-05-05 09:47 23.38237 113.30244 57 ft 7 kts 194°
2026-05-05 09:47 23.38174 113.30230 57 ft 9 kts 179°
2026-05-05 09:47 23.38127 113.30280 57 ft 10 kts 110°
2026-05-05 09:48 23.38105 113.30363 57 ft 11 kts 104°
2026-05-05 09:48 23.38069 113.30445 57 ft 12 kts 147°
2026-05-05 09:48 23.37981 113.30444 57 ft 13 kts 193°
2026-05-05 09:48 23.37879 113.30416 57 ft 16 kts 193°
2026-05-05 09:49 23.37774 113.30387 57 ft 14 kts 194°
2026-05-05 09:49 23.37684 113.30363 57 ft 11 kts 190°
2026-05-05 09:49 23.37616 113.30383 57 ft 9 kts 128°
2026-05-05 09:49 23.37598 113.30443 57 ft 8 kts 105°
2026-05-05 09:50 23.37591 113.30505 57 ft 8 kts 77°
2026-05-05 09:50 23.37635 113.30551 57 ft 9 kts 17°
2026-05-05 09:50 23.37776 113.30589 57 ft 46 kts 13°
2026-05-05 09:50 23.38311 113.30736 57 ft 111 kts 14°
2026-05-05 09:51 23.39269 113.30993 57 ft 168 kts 14°
2026-05-05 09:51 23.40557 113.31346 204 ft 204 kts 15°
2026-05-05 09:51 23.41915 113.31718 975 ft 203 kts 17°
2026-05-05 09:51 23.43279 113.32137 1559 ft 206 kts 18°
2026-05-05 09:52 23.44719 113.32577 1777 ft 223 kts 17°
2026-05-05 09:52 23.46264 113.33038 2086 ft 237 kts 17°
2026-05-05 09:52 23.47922 113.33531 2402 ft 254 kts 16°
2026-05-05 09:52 23.49670 113.34050 2890 ft 264 kts 16°
2026-05-05 09:53 23.51461 113.34583 3450 ft 271 kts 16°
2026-05-05 09:53 23.53293 113.35128 4045 ft 276 kts 15°
2026-05-05 09:53 23.55174 113.35686 4654 ft 281 kts 13°
2026-05-05 09:53 23.57101 113.36123 5295 ft 283 kts
2026-05-05 09:54 23.59062 113.36493 5909 ft 287 kts
2026-05-05 09:54 23.61049 113.37017 6486 ft 293 kts 25°
2026-05-05 09:54 23.62667 113.38332 7120 ft 296 kts 51°